Regional Weather Roundup
Issued by NWS Columbia, SC

Home | Current Version | Previous Version | Text Only | Print | Product List | Glossary On
Versions: 1 2 3 4 5 6 7 8 9 10 11 12 13 14 15 16 17 18 19 20 21 22 23 24 25 26 27 28 29 30 31 32 33 34 35 36 37 38 39 40 41 42 43 44 45 46 47 48 49 50
000
ASUS42 KCAE 011510
RWRCAE
REGIONAL WEATHER ROUNDUP
NATIONAL WEATHER SERVICE COLUMBIA SC
1100 AM EDT WED JUL 01 2015

NOTE: "FAIR" INDICATES FEW OR NO CLOUDS BELOW 12,000 FEET WITH NO
SIGNIFICANT WEATHER AND/OR OBSTRUCTIONS TO VISIBILITY.

NOT ALL STATIONS ARE QUALITY CONTROLLED BY THE NATIONAL
WEATHER SERVICE. USE DATA WITH CAUTION...ESPECIALLY
DEWPOINT OBSERVATIONS.

SCZ001>056-GAZ040-063>065-077-011600-
...UPSTATE SOUTH CAROLINA...

CITY           SKY/WX    TMP DP  RH WIND       PRES   REMARKS
ANDERSON       MOSUNNY   78  68  71 SW12      30.03R
SPARTANBURG      N/A     81  68  65 SW6       30.00S
CLEMSON        MOSUNNY   79  67  66 W12       30.05R
GREENVILLE     MOSUNNY   78  65  63 SW9       30.02S
GREENWOOD      MOSUNNY   79  69  71 SW10      30.04R
GREER          MOSUNNY   80  66  62 SW8       30.00S
ROCK HILL      SUNNY     77  68  73 VRB5      30.01R
CHESTER        SUNNY     79  68  69 CALM      30.02R


...CENTRAL SOUTH CAROLINA...

CITY           SKY/WX    TMP DP  RH WIND       PRES   REMARKS
COLUMBIA APT   CLOUDY    79  69  71 W6        30.01R
COLUMBIA OWENS SUNNY     79  69  71 VRB7      30.02R
DARLINGTON     CLOUDY    75  70  83 SW6       30.01S
FLORENCE       CLOUDY    78  71  79 SW7       30.00S
MCENTIRE ANGB  CLOUDY    78  70  74 W10       30.01S
ORANGEBURG     MOSUNNY   77  69  76 SW8       30.03R
SUMTER SHAW    MOSUNNY   77  70  78 SW9       29.99S
NEWBERRY       SUNNY     77  68  73 SW9       30.05R
BARNWELL       FAIR      79  72  78 W8        30.04S
MANNING        PTSUNNY   77  68  73 W5        30.02S
CAMDEN         FAIR      79  70  73 SW8       30.01S
LANCASTER      MOSUNNY   75  73  94 SW3       30.01R
WINNSBORO      MOSUNNY   77  70  78 SW5       30.01S


...EASTERN AND COASTAL SOUTH CAROLINA...

CITY           SKY/WX    TMP DP  RH WIND       PRES   REMARKS
MYRTLE BEACH   CLOUDY    79  68  69 W6        30.03R
N MYRTLE BCH   CLOUDY    77  70  79 W7        30.00S
CONWAY         CLOUDY    75  72  88 SW5       30.01S FOG
MARION         CLOUDY    73  72  94 SW5       30.01R
HARTSVILLE     PTSUNNY   75  70  83 SW6       30.00R
FLORENCE       CLOUDY    78  71  79 SW7       30.00S
DARLINGTON     CLOUDY    75  70  83 SW6       30.01S
CHARLESTON APT PTSUNNY   79  70  74 W8        30.03S
MOUNT PLEASANT FAIR      81  72  74 W8        30.03S
WALTERBORO     MOSUNNY   77  70  78 W8        30.04S
BEAUFORT       PTSUNNY   81  71  71 SW12      30.05S


...EASTERN GEORGIA...

CITY           SKY/WX    TMP DP  RH WIND       PRES   REMARKS
AUGUSTA BUSH F SUNNY     79  69  71 W8        30.03R
AUGUSTA DANIEL SUNNY     78  69  73 W6        30.05R
THOMSON        SUNNY     80  74  82 W5        30.08S
WASHINGTON     FAIR      79  75  89 W7        30.05S
CLAXTON        PTSUNNY   79  72  78 W5        30.08S
SYLVANIA       MOSUNNY   80  73  80 W6        30.06S
STATESBORO     MOSUNNY   80  77  91 W8        30.06S
SAVANNAH       PTSUNNY   80  69  69 SW12      30.07S


...SOUTHERN NORTH CAROLINA...

CITY           SKY/WX    TMP DP  RH WIND       PRES   REMARKS
CHARLOTTE      MOSUNNY   79  66  64 VRB3      30.00R
MONROE         SUNNY     78  68  71 VRB6      29.99S
WADESBORO      MOSUNNY   77  69  76 CALM      29.98F
ROCKINGHAM     PTSUNNY   75  69  81 CALM      29.99F
RUTHERFORDTON  MOSUNNY   77  67  69 CALM      30.01S
ASHEVILLE      SUNNY     76  62  62 N7        30.07R

$$


USA.gov is the U.S. government's official web portal to all federal, state and local government web resources and services.